sat.trackr.live / text

‹ back to catalog

ICEYE-X11

NORAD 48918 · 2021-059AR

PAYLOAD ACTIVE UNKNOWN

§ Identity

Operator
Country
FIN
Launch date
2021-06-30
Launch site
AFETR
Launch vehicle
Mass (kg)
RCS (m²)

External: N2YO · Heavens-Above · Gunter

§ Orbital elements

Epoch: 2026-06-29T17:57:13.108032Z

Period
88.28 min
Inclination
97.6106°
Eccentricity
0.0009485
Mean motion
16.31092687 rev/d
Perigee alt
183.4 km
Apogee alt
195.8 km
Semi-major
6,567.7 km
B*
1.0598e-3
RAAN
22.1332°
Arg perigee
264.1222°
Mean anomaly
95.8991°
Rev number
28,001

§ Raw data

ICEYE-X111 48918U 21059AR  26180.74806838  .05159150  26278-5  10598-2 0  99992 48918  97.6106  22.1332 0009485 264.1222  95.8991 16.31092687280014

JSON: /api/v1/satellites/48918 · /tle

For live sub-satellite position, see the globe view (requires WebGL).

§ Visibility from observer

Set your observer location to see the next 7 days of passes ≥ 10°. The values pass through the URL so the page stays shareable.

No JS? Fill the form by hand. The geolocation button needs JavaScript.